Flag for Germany Weather past 2 weeks in Leutkirch im Allgäu, Baden-Württemberg, Germany

Now
55 °F

Overcast.


Feels Like: 51 °F
Forecast: 34 / 38 °F
Wind: 13 mph from West

Location: Kempten

Current Time: Mar 31, 2015 at 10:31:24 AM

Latest Report: Mar 31, 2015 at 10:00 AM


Visibility: 44 mi

Pressure: 29.63 "Hg

Humidity: 60%

Dew point: 41 °F

Location of Leutkirch im AllgäuLocation

Historic Weather in Leutkirch im Allgäu — Graph

°F

Leutkirch im Allgäu temperature yesterday

Maximum temperature yesterday: 48 °F (at 4:00 PM)
Minimum temperature yesterday: 43 °F (at 3:00 PM)
Average temperature yesterday: 45 °F

Past Weeks' High & Low Weather Summary

 TemperatureHumidityPressure
High63 °F (Mar 17, 2:00 PM)98% (Mar 22, 2:00 AM)30.31 "Hg (Mar 22, 2:00 AM)
Low28 °F (Mar 20, 7:00 AM)27% (Mar 17, 2:00 PM)29.47 "Hg (Mar 25, 1:00 PM)
Average43 °F73%30.01 "Hg
* Reported Mar 16 8:00 AM — Mar 31 9:00 AM, Leutkirch im Allgäu, Weather by CustomWeather, © 2015

Note: Actual official high and low records may vary slightly from our data, if they occured in-between our weather recording intervals... More about our weather records

Advertising

Leutkirch im Allgäu weather history for previous 24 hours

 ConditionsComfort  
Time TempWeatherWind HumidityBarometerVisibility
9:00 AM
Tue, Mar 31
54 °FOvercast.12 mph65%29.65 "Hg43 mi
8:00 AM52 °FOvercast.8 mph69%29.68 "Hg43 mi
7:00 AM51 °FOvercast.9 mph74%29.68 "Hg43 mi
6:00 AM49 °FOvercast.8 mph75%29.71 "Hg43 mi
4:00 AM43 °FDrizzle. Overcast.7 mph84%29.85 "Hg22 mi
3:00 AM40 °FLight freezing rain. Overcast.6 mph87%29.92 "Hg5 mi
2:00 AM41 °FLight rain. Overcast.5 mph82%29.93 "Hg15 mi
1:00 AM44 °FLight rain. Overcast.5 mph74%29.96 "Hg22 mi
12:00 AM44 °FOvercast.5 mph68%29.99 "Hg31 mi
10:00 PM
Mon, Mar 30
43 °FOvercast.3 mph74%29.99 "Hg25 mi
9:00 PM44 °FOvercast.3 mph63%29.97 "Hg31 mi
8:00 PM45 °FOvercast.5 mph59%29.92 "Hg34 mi
7:00 PM45 °FOvercast.5 mph64%29.88 "Hg34 mi
6:00 PM45 °FOvercast.7 mph66%29.85 "Hg40 mi
4:00 PM48 °FScattered clouds.9 mph66%29.80 "Hg43 mi
3:00 PM43 °FDrizzle. Overcast.8 mph82%29.80 "Hg16 mi
2:00 PM43 °FRain. Overcast.6 mph92%29.76 "Hg2 mi
1:00 PM44 °FLight rain. Overcast.8 mph89%29.72 "Hg2 mi
12:00 PM46 °FOvercast.8 mph82%29.69 "Hg31 mi
10:00 AM44 °FRain. Fog.8 mph86%29.67 "Hg2 mi
Weather by CustomWeather, © 2015

See weather overviewHow to use our weather pages